<?xml version="1.0" encoding="UTF-8" standalone="no" ?>
<gpx xmlns="http://www.topografix.com/GPX/1/1" xmlns:xsi="http://www.w3.org/2001/XMLSchema-instance" xsi:schemaLocation="http://www.topografix.com/GPX/1/1 http://www.topografix.com/GPX/1/1/gpx.xsd" version="1.1" creator="VisuGPX - https://www.visugpx.com">
  <metadata>
    <name>Carantec_Tour_Callot_14-23km</name>
    <desc><![CDATA[gnerando idor:8977980_9226405_9307629]]></desc>
  </metadata>
  <trk>
    <name><![CDATA[Carantec_Tour_Callot_23km-8977980]]></name>
    <extensions>
      <line xmlns="http://www.topografix.com/GPX/gpx_style/0/2">
        <color>0000FF</color>
        <width>4</width>
      </line>
    </extensions>
    <trkseg>
      <trkpt lat="48.65514" lon="-3.90249">
        <ele>6</ele>
        <time>2023-10-31T19:30:54Z</time>
      </trkpt>
      <trkpt lat="48.6586" lon="-3.90532">
        <ele>2</ele>
        <time>2023-10-31T19:39:39Z</time>
      </trkpt>
      <trkpt lat="48.66262" lon="-3.90575">
        <ele>7</ele>
        <time>2023-10-31T19:48:37Z</time>
      </trkpt>
      <trkpt lat="48.66449" lon="-3.90369">
        <ele>6</ele>
        <time>2023-10-31T19:53:45Z</time>
      </trkpt>
      <trkpt lat="48.66483" lon="-3.90241">
        <ele>7</ele>
        <time>2023-10-31T19:55:47Z</time>
      </trkpt>
      <trkpt lat="48.66478" lon="-3.90121">
        <ele>7</ele>
        <time>2023-10-31T19:57:33Z</time>
      </trkpt>
      <trkpt lat="48.66517" lon="-3.90026">
        <ele>9</ele>
        <time>2023-10-31T19:59:11Z</time>
      </trkpt>
      <trkpt lat="48.66614" lon="-3.90198">
        <ele>27</ele>
        <time>2023-10-31T20:02:31Z</time>
      </trkpt>
      <trkpt lat="48.66687" lon="-3.89846">
        <ele>38</ele>
        <time>2023-10-31T20:07:56Z</time>
      </trkpt>
      <trkpt lat="48.66835" lon="-3.89477">
        <ele>45</ele>
        <time>2023-10-31T20:14:16Z</time>
      </trkpt>
      <trkpt lat="48.66761" lon="-3.89391">
        <ele>36</ele>
        <time>2023-10-31T20:16:21Z</time>
      </trkpt>
      <trkpt lat="48.66648" lon="-3.89365">
        <ele>10</ele>
        <time>2023-10-31T20:18:53Z</time>
      </trkpt>
      <trkpt lat="48.66699" lon="-3.89082">
        <ele>8</ele>
        <time>2023-10-31T20:23:12Z</time>
      </trkpt>
      <trkpt lat="48.66886" lon="-3.88979">
        <ele>5</ele>
        <time>2023-10-31T20:27:37Z</time>
      </trkpt>
      <trkpt lat="48.6696" lon="-3.89073">
        <ele>19</ele>
        <time>2023-10-31T20:29:46Z</time>
      </trkpt>
      <trkpt lat="48.67113" lon="-3.89013">
        <ele>3</ele>
        <time>2023-10-31T20:33:17Z</time>
      </trkpt>
      <trkpt lat="48.67107" lon="-3.89297">
        <ele>16</ele>
        <time>2023-10-31T20:37:28Z</time>
      </trkpt>
      <trkpt lat="48.67147" lon="-3.8958">
        <ele>20</ele>
        <time>2023-10-31T20:41:43Z</time>
      </trkpt>
      <trkpt lat="48.67237" lon="-3.89734">
        <ele>12</ele>
        <time>2023-10-31T20:44:44Z</time>
      </trkpt>
      <trkpt lat="48.6722" lon="-3.89837">
        <ele>15</ele>
        <time>2023-10-31T20:46:17Z</time>
      </trkpt>
      <trkpt lat="48.67113" lon="-3.8988">
        <ele>10</ele>
        <time>2023-10-31T20:48:45Z</time>
      </trkpt>
      <trkpt lat="48.67045" lon="-3.90146">
        <ele>9</ele>
        <time>2023-10-31T20:52:57Z</time>
      </trkpt>
      <trkpt lat="48.67028" lon="-3.90344">
        <ele>14</ele>
        <time>2023-10-31T20:55:53Z</time>
      </trkpt>
      <trkpt lat="48.66999" lon="-3.90575">
        <ele>11</ele>
        <time>2023-10-31T20:59:20Z</time>
      </trkpt>
      <trkpt lat="48.6692" lon="-3.90747">
        <ele>4</ele>
        <time>2023-10-31T21:02:24Z</time>
      </trkpt>
      <trkpt lat="48.66948" lon="-3.90987">
        <ele>6</ele>
        <time>2023-10-31T21:05:59Z</time>
      </trkpt>
      <trkpt lat="48.67033" lon="-3.91168">
        <ele>13</ele>
        <time>2023-10-31T21:09:15Z</time>
      </trkpt>
      <trkpt lat="48.67181" lon="-3.91211">
        <ele>11</ele>
        <time>2023-10-31T21:12:36Z</time>
      </trkpt>
      <trkpt lat="48.67345" lon="-3.91296">
        <ele>6</ele>
        <time>2023-10-31T21:16:27Z</time>
      </trkpt>
      <trkpt lat="48.67351" lon="-3.91468">
        <ele>10</ele>
        <time>2023-10-31T21:18:59Z</time>
      </trkpt>
      <trkpt lat="48.67283" lon="-3.91726">
        <ele>18</ele>
        <time>2023-10-31T21:23:04Z</time>
      </trkpt>
      <trkpt lat="48.67362" lon="-3.91889">
        <ele>12</ele>
        <time>2023-10-31T21:26:02Z</time>
      </trkpt>
      <trkpt lat="48.67538" lon="-3.92155">
        <ele>6</ele>
        <time>2023-10-31T21:31:34Z</time>
      </trkpt>
      <trkpt lat="48.6743" lon="-3.92301">
        <ele>6</ele>
        <time>2023-10-31T21:34:47Z</time>
      </trkpt>
      <trkpt lat="48.6747" lon="-3.92481">
        <ele>1</ele>
        <time>2023-10-31T21:37:34Z</time>
      </trkpt>
      <trkpt lat="48.68354" lon="-3.92249">
        <ele>5</ele>
        <time>2023-10-31T21:57:32Z</time>
      </trkpt>
      <trkpt lat="48.68654" lon="-3.92283">
        <ele>5</ele>
        <time>2023-10-31T22:04:13Z</time>
      </trkpt>
      <trkpt lat="48.6883" lon="-3.92189">
        <ele>8</ele>
        <time>2023-10-31T22:08:22Z</time>
      </trkpt>
      <trkpt lat="48.6896" lon="-3.92455">
        <ele>4</ele>
        <time>2023-10-31T22:13:14Z</time>
      </trkpt>
      <trkpt lat="48.69056" lon="-3.92575">
        <ele>8</ele>
        <time>2023-10-31T22:16:00Z</time>
      </trkpt>
      <trkpt lat="48.69255" lon="-3.92421">
        <ele>18</ele>
        <time>2023-10-31T22:20:58Z</time>
      </trkpt>
      <trkpt lat="48.69521" lon="-3.92567">
        <ele>6</ele>
        <time>2023-10-31T22:27:16Z</time>
      </trkpt>
      <trkpt lat="48.69714" lon="-3.9255">
        <ele>8</ele>
        <time>2023-10-31T22:31:34Z</time>
      </trkpt>
      <trkpt lat="48.69731" lon="-3.92318">
        <ele>5</ele>
        <time>2023-10-31T22:34:59Z</time>
      </trkpt>
      <trkpt lat="48.69929" lon="-3.92532">
        <ele>3</ele>
        <time>2023-10-31T22:40:24Z</time>
      </trkpt>
      <trkpt lat="48.69776" lon="-3.92713">
        <ele>3</ele>
        <time>2023-10-31T22:44:43Z</time>
      </trkpt>
      <trkpt lat="48.69698" lon="-3.92524">
        <ele>8</ele>
        <time>2023-10-31T22:47:59Z</time>
      </trkpt>
      <trkpt lat="48.69541" lon="-3.92556">
        <ele>6</ele>
        <time>2023-10-31T22:51:30Z</time>
      </trkpt>
      <trkpt lat="48.69392" lon="-3.92541">
        <ele>9</ele>
        <time>2023-10-31T22:54:50Z</time>
      </trkpt>
      <trkpt lat="48.69255" lon="-3.92444">
        <ele>17</ele>
        <time>2023-10-31T22:58:12Z</time>
      </trkpt>
      <trkpt lat="48.69156" lon="-3.92459">
        <ele>16</ele>
        <time>2023-10-31T23:00:24Z</time>
      </trkpt>
      <trkpt lat="48.69065" lon="-3.92605">
        <ele>8</ele>
        <time>2023-10-31T23:03:21Z</time>
      </trkpt>
      <trkpt lat="48.68937" lon="-3.925">
        <ele>6</ele>
        <time>2023-10-31T23:06:35Z</time>
      </trkpt>
      <trkpt lat="48.68784" lon="-3.92588">
        <ele>5</ele>
        <time>2023-10-31T23:10:14Z</time>
      </trkpt>
      <trkpt lat="48.68678" lon="-3.92509">
        <ele>8</ele>
        <time>2023-10-31T23:12:52Z</time>
      </trkpt>
      <trkpt lat="48.68535" lon="-3.92365">
        <ele>4</ele>
        <time>2023-10-31T23:16:41Z</time>
      </trkpt>
      <trkpt lat="48.68369" lon="-3.92223">
        <ele>6</ele>
        <time>2023-10-31T23:20:55Z</time>
      </trkpt>
      <trkpt lat="48.68087" lon="-3.92369">
        <ele>5</ele>
        <time>2023-10-31T23:27:33Z</time>
      </trkpt>
      <trkpt lat="48.67465" lon="-3.92499">
        <ele>1</ele>
        <time>2023-10-31T23:41:31Z</time>
      </trkpt>
      <trkpt lat="48.67413" lon="-3.92318">
        <ele>5</ele>
        <time>2023-10-31T23:44:25Z</time>
      </trkpt>
      <trkpt lat="48.67175" lon="-3.92275">
        <ele>7</ele>
        <time>2023-10-31T23:49:44Z</time>
      </trkpt>
      <trkpt lat="48.67051" lon="-3.92336">
        <ele>6</ele>
        <time>2023-10-31T23:52:38Z</time>
      </trkpt>
      <trkpt lat="48.66835" lon="-3.92525">
        <ele>5</ele>
        <time>2023-10-31T23:58:11Z</time>
      </trkpt>
      <trkpt lat="48.66635" lon="-3.92677">
        <ele>3</ele>
        <time>2023-11-01T00:03:10Z</time>
      </trkpt>
      <trkpt lat="48.66349" lon="-3.92814">
        <ele>2</ele>
        <time>2023-11-01T00:09:50Z</time>
      </trkpt>
      <trkpt lat="48.6612" lon="-3.92785">
        <ele>5</ele>
        <time>2023-11-01T00:14:57Z</time>
      </trkpt>
      <trkpt lat="48.65782" lon="-3.9303">
        <ele>4</ele>
        <time>2023-11-01T00:23:17Z</time>
      </trkpt>
      <trkpt lat="48.65658" lon="-3.93629">
        <ele>6</ele>
        <time>2023-11-01T00:32:30Z</time>
      </trkpt>
      <trkpt lat="48.6542" lon="-3.9394">
        <ele>15</ele>
        <time>2023-11-01T00:39:30Z</time>
      </trkpt>
      <trkpt lat="48.65377" lon="-3.94077">
        <ele>18</ele>
        <time>2023-11-01T00:41:44Z</time>
      </trkpt>
      <trkpt lat="48.65067" lon="-3.94149">
        <ele>39</ele>
        <time>2023-11-01T00:48:42Z</time>
      </trkpt>
      <trkpt lat="48.65114" lon="-3.93904">
        <ele>39</ele>
        <time>2023-11-01T00:52:27Z</time>
      </trkpt>
      <trkpt lat="48.64557" lon="-3.93528">
        <ele>35</ele>
        <time>2023-11-01T01:06:01Z</time>
      </trkpt>
      <trkpt lat="48.6439" lon="-3.93528">
        <ele>23</ele>
        <time>2023-11-01T01:09:44Z</time>
      </trkpt>
      <trkpt lat="48.64366" lon="-3.92482">
        <ele>54</ele>
        <time>2023-11-01T01:25:07Z</time>
      </trkpt>
      <trkpt lat="48.64151" lon="-3.92532">
        <ele>52</ele>
        <time>2023-11-01T01:29:57Z</time>
      </trkpt>
      <trkpt lat="48.64132" lon="-3.92258">
        <ele>61</ele>
        <time>2023-11-01T01:34:00Z</time>
      </trkpt>
      <trkpt lat="48.64027" lon="-3.92222">
        <ele>61</ele>
        <time>2023-11-01T01:36:24Z</time>
      </trkpt>
      <trkpt lat="48.64037" lon="-3.92085">
        <ele>64</ele>
        <time>2023-11-01T01:38:25Z</time>
      </trkpt>
      <trkpt lat="48.6397" lon="-3.92063">
        <ele>64</ele>
        <time>2023-11-01T01:39:57Z</time>
      </trkpt>
      <trkpt lat="48.6396" lon="-3.91926">
        <ele>66</ele>
        <time>2023-11-01T01:41:58Z</time>
      </trkpt>
      <trkpt lat="48.64037" lon="-3.91803">
        <ele>67</ele>
        <time>2023-11-01T01:44:28Z</time>
      </trkpt>
      <trkpt lat="48.64046" lon="-3.91536">
        <ele>59</ele>
        <time>2023-11-01T01:48:23Z</time>
      </trkpt>
      <trkpt lat="48.64223" lon="-3.91363">
        <ele>56</ele>
        <time>2023-11-01T01:53:04Z</time>
      </trkpt>
      <trkpt lat="48.64208" lon="-3.91136">
        <ele>49</ele>
        <time>2023-11-01T01:56:26Z</time>
      </trkpt>
      <trkpt lat="48.64174" lon="-3.90977">
        <ele>46</ele>
        <time>2023-11-01T01:58:53Z</time>
      </trkpt>
      <trkpt lat="48.6412" lon="-3.90883">
        <ele>47</ele>
        <time>2023-11-01T02:00:43Z</time>
      </trkpt>
      <trkpt lat="48.64106" lon="-3.90754">
        <ele>43</ele>
        <time>2023-11-01T02:02:38Z</time>
      </trkpt>
      <trkpt lat="48.64038" lon="-3.9066">
        <ele>39</ele>
        <time>2023-11-01T02:04:41Z</time>
      </trkpt>
      <trkpt lat="48.63924" lon="-3.90668">
        <ele>47</ele>
        <time>2023-11-01T02:07:13Z</time>
      </trkpt>
      <trkpt lat="48.63805" lon="-3.90372">
        <ele>42</ele>
        <time>2023-11-01T02:12:19Z</time>
      </trkpt>
      <trkpt lat="48.63836" lon="-3.90235">
        <ele>35</ele>
        <time>2023-11-01T02:14:26Z</time>
      </trkpt>
      <trkpt lat="48.63669" lon="-3.89947">
        <ele>22</ele>
        <time>2023-11-01T02:20:04Z</time>
      </trkpt>
      <trkpt lat="48.63782" lon="-3.89814">
        <ele>18</ele>
        <time>2023-11-01T02:23:15Z</time>
      </trkpt>
      <trkpt lat="48.63845" lon="-3.89535">
        <ele>14</ele>
        <time>2023-11-01T02:27:35Z</time>
      </trkpt>
      <trkpt lat="48.64094" lon="-3.89368">
        <ele>18</ele>
        <time>2023-11-01T02:33:39Z</time>
      </trkpt>
      <trkpt lat="48.64316" lon="-3.89304">
        <ele>5</ele>
        <time>2023-11-01T02:38:40Z</time>
      </trkpt>
      <trkpt lat="48.64574" lon="-3.89668">
        <ele>7</ele>
        <time>2023-11-01T02:46:31Z</time>
      </trkpt>
      <trkpt lat="48.64738" lon="-3.89844">
        <ele>16</ele>
        <time>2023-11-01T02:50:59Z</time>
      </trkpt>
      <trkpt lat="48.64908" lon="-3.89806">
        <ele>3</ele>
        <time>2023-11-01T02:54:49Z</time>
      </trkpt>
      <trkpt lat="48.65107" lon="-3.90033">
        <ele>11</ele>
        <time>2023-11-01T03:00:21Z</time>
      </trkpt>
      <trkpt lat="48.65316" lon="-3.90226">
        <ele>15</ele>
        <time>2023-11-01T03:05:48Z</time>
      </trkpt>
      <trkpt lat="48.65513" lon="-3.90249">
        <ele>6</ele>
        <time>2023-11-01T03:10:12Z</time>
      </trkpt>
    </trkseg>
  </trk>
</gpx>